Total_Precipitation_Accumulation
2.00 1.82 2.29 1.95 1.79 1.16 1.36 1.65 1.49 1.24 1.41 1.23 1.32 0.96 1.11 0.80 0.63 0.59 1.20 0.43 0.55 0.75 0.61 0.87 0.90 0.95 0.64 0.52 0.50 0.48 0.95 0.74 0.68 0.58 0.78 1.01 0.66 0.38 0.40 0.72 0.71 0.54 0.45 0.44 0.42 0.45 0.29 0.33 0.20 0.26 0.18 0.18 0.15 0.13 0.09 0.11 0.19 0.34 0.37 0.56 0.54 0.60 0.81 1.01 0.72 0.39 0.52 0.32 0.31 0.62 0.99 0.71 0.84 0.60 0.60 0.93 1.33 0.57 0.41 0.61 0.71 0.39 0.65 0.46 0.75
2.34 3.19 2.45 2.69 2.41 1.73 1.33 1.61 1.99 1.93 1.77 1.63 1.21 1.04 0.91 0.89 0.78 0.80 0.66 0.94 1.13 0.72 0.44 0.30 0.43 0.49 0.68 0.61 0.62 1.16 1.02 0.82 0.98 0.68 0.79 1.01 0.87 0.52 0.44 0.61 0.56 0.37 0.37 0.33 0.35 0.34 0.28 0.17 0.24 0.17 0.21 0.25 0.18 0.15 0.19 0.19 0.15 0.32 0.21 0.37 0.36 0.54 0.53 0.47 0.31 0.67 0.62 0.46 0.70 0.64 0.63 0.60 0.70 0.58 0.92 0.95 1.45 0.69 0.87 0.79 0.82 1.25 0.89 0.67 0.75
2.95 3.51 2.76 2.43 2.41 2.65 3.52 2.60 2.15 2.31 1.97 1.33 1.01 1.07 1.00 1.15 0.80 0.83 1.09 1.00 0.92 0.54 0.50 0.54 0.28 0.46 0.68 1.39 0.81 0.56 0.77 1.06 0.78 1.11 0.87 0.80 0.64 0.42 0.71 0.70 0.64 0.35 0.37 0.51 0.36 0.60 0.62 0.53 0.26 0.31 0.35 0.38 0.42 0.23 0.31 0.35 0.29 0.20 0.38 0.39 0.36 0.30 0.67 0.65 0.69 0.64 0.48 0.52 0.46 0.66 0.66 0.89 0.98 1.20 1.47 1.24 1.26 1.06 0.89 0.57 0.85 0.91 0.91 0.67 1.18
3.40 2.98 2.99 2.12 2.32 2.05 2.23 2.07 2.34 3.26 2.37 1.82 1.54 1.65 1.27 1.45 1.18 1.15 1.50 1.07 0.55 0.35 0.44 0.61 0.67 1.13 1.23 0.84 0.65 0.82 1.32 1.07 1.27 1.03 0.78 0.95 0.80 0.49 0.87 0.89 0.54 0.50 0.32 0.48 0.72 1.11 1.08 0.68 0.44 0.50 0.61 0.64 0.54 0.43 0.53 0.32 0.46 0.34 0.34 0.28 0.20 0.28 0.49 0.36 1.07 0.63 0.53 0.61 0.88 0.51 0.83 0.82 1.27 1.25 1.43 1.26 1.68 1.52 1.18 0.84 1.13 0.79 0.76 0.67 0.58
2.93 3.13 4.13 4.27 4.09 3.15 3.04 3.15 3.35 2.95 1.84 1.61 1.48 1.90 1.44 1.70 1.41 1.00 0.82 0.90 1.71 1.19 1.13 1.35 1.40 0.94 0.70 0.62 1.01 0.80 0.73 0.97 0.81 1.27 1.21 0.90 0.91 1.26 1.26 0.95 0.63 0.35 0.48 0.48 0.67 1.02 0.95 0.73 0.60 0.81 0.62 0.58 0.41 0.47 0.45 0.41 0.51 0.62 0.46 0.28 0.30 0.33 0.31 0.70 0.69 0.92 0.82 0.71 0.65 0.63 0.59 0.83 1.60 1.76 1.87 1.34 1.34 1.17 1.09 0.74 1.40 0.80 0.64 0.68 1.02
3.67 3.32 2.81 2.72 2.97 3.10 2.61 2.48 2.20 1.88 1.62 1.37 1.38 1.74 1.66 1.93 1.47 1.40 1.14 1.18 1.32 1.26 1.80 1.76 1.61 1.36 1.01 1.19 1.26 1.21 1.26 1.29 1.14 1.54 1.31 1.56 1.35 1.59 1.38 1.66 0.63 0.87 0.60 1.20 1.42 2.03 1.62 0.82 1.12 1.72 0.92 0.76 0.40 0.48 0.59 1.14 1.08 0.81 0.57 0.55 0.60 0.62 0.68 0.62 0.64 0.77 0.61 0.61 0.87 0.72 1.11 0.80 1.69 1.83 1.91 1.32 0.98 0.86 0.69 0.78 0.79 0.62 0.32 0.39 0.80
2.72 2.83 2.23 2.00 2.75 3.62 3.22 2.68 2.81 2.09 1.54 2.08 2.19 2.47 1.81 1.80 1.93 1.87 1.87 1.65 1.49 1.55 1.92 1.67 1.44 1.35 1.29 1.13 1.21 1.09 1.23 1.50 2.06 2.78 2.52 1.89 2.37 1.52 1.52 1.49 1.39 1.13 1.51 1.66 1.45 2.31 2.18 1.81 1.50 1.38 1.20 0.88 0.85 0.99 0.78 1.10 0.94 0.75 0.43 0.55 0.48 0.55 0.60 0.75 0.59 0.80 1.16 0.72 0.77 1.11 1.00 1.50 1.86 2.30 2.58 1.44 1.37 1.15 1.11 0.84 1.07 0.96 0.91 0.45 0.71
3.46 2.35 1.43 1.10 2.10 3.69 2.41 2.76 3.56 2.90 2.75 3.76 2.84 2.26 2.86 2.19 2.44 2.43 2.94 2.69 1.89 1.53 1.42 1.25 1.21 1.32 1.42 1.90 1.70 1.70 2.28 1.86 1.78 2.35 2.27 2.43 2.14 1.91 1.79 1.40 2.43 1.88 1.18 1.34 1.37 1.62 2.31 2.14 2.32 1.74 1.79 1.46 1.12 0.93 1.08 1.10 0.90 0.62 0.45 0.73 0.76 0.67 0.63 0.46 0.80 0.97 1.16 1.01 0.90 1.41 1.39 1.91 2.67 2.52 2.32 1.88 1.47 1.23 0.94 1.38 1.17 1.29 0.89 1.05 0.97
4.34 2.87 2.48 2.23 2.41 3.35 4.01 3.98 3.45 3.71 3.15 3.86 3.70 2.75 3.02 3.89 3.26 3.73 2.63 2.53 2.91 2.12 1.97 1.52 1.36 1.10 0.89 0.98 1.43 1.17 1.72 1.48 1.44 2.08 1.71 1.80 2.68 2.05 1.34 1.84 1.81 1.63 1.80 1.28 1.41 2.60 3.16 2.28 1.88 1.65 1.55 1.75 1.30 1.18 0.81 0.90 1.24 1.15 1.33 1.13 1.35 0.91 0.65 1.24 0.83 0.81 1.16 1.13 1.46 1.46 1.84 1.90 2.10 2.30 2.06 1.84 1.23 1.04 2.40 1.80 1.19 1.04 1.27 1.36 1.61
4.18 3.41 2.76 2.98 2.52 3.50 3.80 3.69 3.94 4.28 3.81 4.36 4.88 3.45 3.28 4.11 4.66 3.76 2.71 2.66 2.46 2.15 1.80 1.58 1.56 1.22 1.55 1.71 1.29 1.57 1.48 1.59 1.15 1.48 1.23 1.70 2.02 1.85 1.78 1.52 1.93 2.09 2.06 1.81 1.85 2.57 2.29 2.25 2.62 1.40 1.89 1.44 1.37 1.11 0.77 0.88 1.04 1.19 1.13 1.11 1.27 2.09 1.21 1.30 1.07 1.09 1.29 1.49 1.49 1.49 1.71 1.94 1.81 3.01 2.07 2.16 1.96 1.89 1.95 2.23 1.55 1.99 1.58 1.59 1.52
4.21 3.15 2.78 4.36 4.60 4.22 4.84 4.16 3.66 4.22 4.18 3.99 4.77 4.22 3.53 3.27 3.35 3.03 2.11 1.79 2.02 2.17 1.88 1.69 1.31 2.22 1.57 1.90 2.12 2.07 1.69 1.49 0.94 1.27 1.17 1.20 2.08 2.43 1.65 1.69 1.92 2.07 1.41 1.27 2.27 2.18 1.69 1.97 1.38 1.20 1.55 1.72 1.61 1.56 1.16 2.22 2.16 1.64 1.53 1.30 1.62 2.33 2.97 1.89 1.38 1.49 1.41 1.86 1.56 1.76 1.33 1.61 1.87 1.78 1.69 1.58 1.39 1.96 2.37 1.77 2.23 2.47 2.13 1.84 1.59
5.57 4.87 4.57 5.21 4.68 3.97 3.51 4.42 3.94 3.50 4.07 5.25 4.84 4.03 3.64 2.96 2.75 2.86 2.00 2.26 1.61 1.43 1.39 1.21 0.99 1.34 1.41 2.12 1.96 1.70 1.61 1.46 1.50 1.59 1.18 1.17 1.01 1.64 1.49 1.24 1.78 2.04 1.57 1.37 1.41 1.63 2.02 1.75 2.10 2.59 2.26 2.93 2.37 1.84 1.44 1.50 1.15 1.03 1.43 1.40 1.78 2.57 2.39 2.51 2.74 2.48 2.30 2.06 2.35 2.13 1.60 1.79 2.05 2.59 2.09 1.54 1.51 1.54 1.79 1.68 2.06 1.80 1.92 3.10 1.93
5.27 5.75 5.77 4.95 5.19 4.08 4.20 5.22 4.37 3.77 4.60 5.53 5.36 5.10 3.52 3.32 3.02 2.85 1.87 1.92 2.00 1.46 1.22 1.48 1.30 1.22 1.35 1.70 1.42 1.03 1.17 2.24 1.48 0.91 0.63 0.68 0.53 0.89 1.48 1.80 1.56 1.40 1.63 1.58 1.68 1.64 2.19 2.09 2.35 2.43 2.61 2.33 2.59 2.18 1.66 1.25 1.50 1.30 1.33 1.44 1.57 1.55 1.81 1.77 1.83 2.87 2.76 2.74 2.15 1.78 1.54 2.03 1.95 2.31 1.86 1.87 2.31 1.41 2.22 2.82 2.74 2.46 2.31 2.09 2.22
6.95 6.99 5.98 5.35 4.42 3.21 4.14 4.27 4.07 4.19 4.79 5.81 5.30 3.51 3.59 2.58 2.81 3.89 2.53 1.98 1.73 1.45 1.50 1.53 1.12 1.26 0.98 1.11 1.28 1.73 1.69 1.59 0.69 0.39 0.28 0.28 0.29 0.50 1.19 1.72 1.78 1.28 1.74 2.50 2.71 2.44 3.14 2.59 2.80 2.53 1.89 1.81 1.81 2.17 2.25 1.94 2.18 2.11 2.15 2.42 2.33 1.81 1.62 1.31 1.32 1.69 2.19 2.55 2.44 2.54 2.61 3.10 3.23 2.07 2.09 2.86 2.51 2.13 2.24 2.51 3.21 3.14 3.45 2.09 2.08
7.55 6.87 6.19 5.93 5.09 4.08 5.08 4.96 4.90 5.26 5.71 5.28 4.20 4.77 3.59 4.08 4.34 4.70 4.10 3.87 2.74 2.06 1.70 1.41 1.50 1.32 1.40 1.69 1.66 1.46 1.87 1.20 0.48 0.24 0.19 0.21 0.22 0.33 0.60 1.45 1.66 1.30 1.56 1.60 2.02 2.67 2.98 3.43 2.95 2.04 1.52 1.69 1.39 1.82 2.22 3.08 2.65 2.60 2.82 3.04 1.94 2.57 2.59 2.45 2.19 2.55 2.88 2.57 2.14 2.80 2.24 2.75 1.95 1.64 2.42 3.09 2.86 3.87 3.75 3.64 4.74 4.10 2.37 2.51 2.01
5.55 5.20 6.42 6.57 4.78 4.66 4.84 5.22 5.79 6.77 6.89 6.17 5.05 5.15 5.02 4.82 5.18 4.77 3.87 3.26 2.79 2.03 1.93 1.58 1.56 1.83 1.87 1.49 1.31 1.39 1.32 0.97 0.32 0.27 0.24 0.22 0.23 0.48 0.87 1.13 1.09 1.05 1.58 2.44 2.41 3.12 3.08 3.17 3.04 2.24 2.33 2.13 2.35 1.89 2.70 3.28 3.08 3.70 3.02 2.77 2.66 2.62 2.64 2.29 2.42 2.69 2.29 2.64 2.16 3.04 2.53 1.99 1.80 2.48 3.11 2.96 2.87 4.16 4.74 4.74 3.01 2.98 3.44 2.53 2.13
4.12 4.75 5.32 5.45 5.29 4.88 5.19 6.40 5.89 5.65 5.60 6.06 5.94 5.76 6.03 5.96 5.12 4.91 3.65 3.10 2.67 1.90 2.51 2.04 1.50 2.32 1.92 1.59 1.52 1.74 1.45 1.06 0.52 0.60 0.54 0.74 1.34 0.75 0.70 1.15 1.30 1.44 1.78 2.13 2.13 3.18 3.12 2.70 2.81 2.20 1.81 2.16 2.52 2.12 2.78 3.40 3.32 3.03 3.44 2.50 3.04 3.01 4.38 2.96 1.90 1.23 1.61 1.89 3.14 1.67 2.71 3.10 2.62 2.43 3.13 2.77 3.67 5.76 7.84 5.02 1.92 2.61 4.99 3.59 3.06
4.94 5.14 5.16 5.21 6.88 6.08 6.49 6.34 6.83 6.86 5.84 5.54 4.88 5.74 6.02 5.68 5.45 5.37 4.70 4.58 5.36 5.18 3.89 3.11 4.15 3.95 3.07 1.86 1.50 1.74 1.49 1.42 1.34 1.27 1.67 0.99 1.24 0.72 1.20 1.85 2.00 2.15 2.38 2.94 2.90 2.59 2.36 2.85 1.97 1.92 2.58 2.15 1.19 1.82 2.06 2.47 2.87 3.55 3.27 3.01 2.85 3.10 3.11 2.93 2.49 2.28 1.30 0.89 1.12 1.34 1.47 1.53 1.54 1.31 1.67 3.12 7.06 6.36 6.11 2.77 1.41 3.98 4.89 4.12 3.61
5.28 5.14 4.55 5.20 5.47 5.06 5.22 6.05 6.24 6.58 6.16 5.31 5.80 6.32 5.48 5.13 4.56 4.56 5.50 4.79 5.64 6.18 4.68 4.43 6.07 5.08 4.18 3.24 1.73 1.70 1.25 1.40 1.16 1.22 1.93 1.68 1.62 1.88 1.86 2.39 2.61 2.93 2.77 3.68 4.19 2.45 3.19 2.76 2.36 2.42 2.25 1.72 1.60 2.51 3.61 3.05 2.46 2.55 3.53 4.00 3.38 2.78 2.54 2.80 3.04 3.22 2.74 1.45 1.33 1.16 1.37 1.23 1.14 1.30 2.00 3.43 2.71 4.00 4.38 4.56 5.11 4.37 4.59 3.82 4.63
3.70 3.49 4.23 4.49 4.57 4.94 4.86 5.58 4.90 5.70 5.16 5.57 6.88 6.25 6.57 6.82 6.03 4.86 5.30 6.59 6.75 4.82 5.28 6.27 5.88 4.46 3.31 2.75 2.81 2.37 2.18 1.98 2.49 1.35 1.58 1.99 1.42 3.34 4.31 2.90 2.40 2.89 3.60 3.21 3.19 3.02 3.30 2.46 2.12 2.12 1.79 1.91 1.89 1.89 2.34 1.78 2.55 3.63 4.13 3.52 2.42 2.99 2.83 3.10 3.42 3.07 2.18 2.57 2.43 2.27 2.46 1.78 2.17 2.06 2.50 2.73 3.25 4.01 3.43 4.44 5.71 5.94 4.81 5.64 4.46
4.55 4.02 3.35 3.32 3.73 3.98 4.57 5.23 4.42 3.81 4.40 4.79 4.19 4.69 5.09 5.15 5.86 6.05 6.89 6.97 7.02 6.51 5.73 5.63 5.57 4.40 4.40 4.23 3.92 5.23 5.18 4.34 3.91 2.27 1.94 2.31 2.18 3.53 5.45 4.69 3.61 2.71 2.49 3.45 2.69 3.29 3.36 3.20 2.98 2.52 1.98 1.63 1.55 1.58 2.23 3.02 3.30 2.88 2.35 2.45 1.97 2.73 3.73 3.44 3.42 3.96 2.45 1.88 2.44 2.46 2.47 2.62 2.91 2.58 2.94 2.49 3.53 3.18 3.03 4.55 5.06 6.49 7.10 8.09 5.73
3.36 3.05 2.98 2.71 3.37 4.68 5.87 6.17 5.64 4.96 4.67 4.61 3.90 3.38 3.69 4.17 4.66 4.87 5.62 6.47 7.79 8.82 8.40 6.81 6.31 5.30 5.39 4.81 4.46 4.42 5.24 4.20 5.55 4.25 3.75 3.33 3.29 3.36 4.29 3.57 2.87 2.91 3.56 3.16 3.34 3.06 3.09 4.06 4.79 3.24 3.24 3.25 2.76 1.47 1.65 2.54 2.98 3.03 1.44 1.15 1.68 3.51 4.97 5.18 4.17 3.73 4.31 3.98 2.17 2.68 2.34 3.56 2.57 2.60 2.27 2.54 2.26 2.87 3.46 3.73 5.01 5.82 6.70 4.84 4.31
2.07 2.33 2.38 3.66 4.05 3.86 3.93 4.44 5.99 6.44 6.44 4.30 3.47 4.29 3.75 3.39 3.69 4.77 4.78 5.66 6.70 6.32 4.80 4.74 5.24 5.74 6.02 5.76 5.67 5.31 5.35 5.84 3.65 4.16 2.46 2.69 2.31 2.71 2.30 3.11 4.12 4.55 4.87 5.68 4.38 4.11 4.68 4.99 4.65 4.64 4.95 3.90 3.40 2.43 1.85 2.08 2.73 2.18 1.35 1.53 2.09 3.21 5.78 8.89 6.36 4.96 3.01 2.69 2.75 2.16 2.06 2.12 2.57 3.59 3.56 2.79 3.58 3.90 3.51 3.22 4.55 6.66 4.80 4.21 4.16
0.89 1.39 1.85 2.11 3.03 3.07 2.97 3.20 4.13 4.67 3.35 2.97 2.39 2.27 2.53 3.06 3.83 4.35 3.89 4.07 4.90 5.60 6.85 5.84 5.52 5.61 5.56 5.79 6.26 6.20 6.65 6.66 6.33 5.33 4.45 3.76 3.43 2.74 3.02 3.96 4.06 6.25 4.53 3.96 4.33 4.51 5.03 5.21 5.34 5.09 5.43 5.04 3.70 3.15 3.45 3.54 3.64 2.70 2.57 2.25 2.95 3.95 5.86 6.44 8.73 7.72 4.66 2.96 2.44 2.18 2.22 2.35 2.47 2.25 2.29 2.42 2.74 3.53 4.17 4.60 5.05 5.00 4.10 3.70 3.65
0.85 1.38 1.58 1.85 1.96 2.06 1.93 2.87 4.43 3.07 2.22 2.04 2.35 2.14 2.02 2.23 2.63 2.54 2.13 2.15 2.65 3.19 3.93 4.50 4.88 5.47 6.24 6.58 8.11 8.20 7.33 6.43 7.18 6.42 5.17 4.69 4.57 4.27 3.59 3.01 3.53 4.30 3.96 3.90 3.25 3.33 3.30 3.58 4.45 4.93 3.82 3.59 3.56 3.77 4.13 4.12 4.05 3.08 3.04 3.00 3.51 6.14 6.14 6.67 6.44 8.26 5.07 3.22 2.82 2.57 2.27 2.35 2.03 2.02 2.18 2.53 2.57 3.19 2.97 3.12 3.64 3.11 2.64 2.69 2.50
0.80 1.18 0.96 1.45 1.96 1.69 1.70 1.40 1.33 2.04 1.39 1.33 1.42 1.36 1.49 1.84 1.65 1.96 1.78 1.58 1.59 1.64 1.88 2.39 2.82 3.56 4.21 4.15 3.96 4.31 4.81 5.56 5.10 6.11 6.94 6.01 6.27 6.06 5.33 4.83 5.96 6.44 5.28 4.80 3.97 3.89 3.85 4.53 4.29 3.92 3.69 3.81 4.63 4.37 5.30 5.25 3.98 3.89 3.57 3.97 3.47 3.98 5.59 6.34 5.23 6.18 4.96 2.71 2.60 2.39 2.58 2.84 2.15 2.13 2.33 2.25 2.65 2.39 2.55 2.92 2.49 2.27 2.27 1.92 1.64
0.72 1.14 1.34 1.06 1.00 0.98 0.72 0.71 0.44 0.38 0.64 0.78 0.63 0.87 1.27 1.06 1.09 1.42 1.79 1.41 1.66 2.20 2.28 2.28 2.33 2.22 2.28 2.63 3.17 3.19 3.47 3.22 2.76 3.22 4.38 4.91 4.48 4.29 3.83 4.95 5.39 6.32 7.19 6.86 5.74 5.87 5.14 5.46 4.93 4.13 4.22 4.25 3.85 3.88 4.19 4.10 3.98 3.59 3.79 3.73 3.14 3.17 3.54 3.72 3.42 4.01 3.01 2.31 2.05 1.88 2.66 2.76 2.84 2.79 2.63 2.83 3.14 2.93 2.83 2.71 2.42 2.26 2.53 1.68 1.48
1.28 1.45 1.63 1.59 1.76 1.87 1.70 1.40 0.66 0.33 0.37 0.44 0.73 0.70 1.05 1.59 1.31 1.09 0.77 0.84 1.06 0.88 0.91 0.95 0.85 0.99 1.33 2.20 3.02 3.25 3.06 2.35 2.40 2.61 2.84 2.76 2.80 3.43 3.56 3.48 3.43 3.85 3.92 3.66 4.01 4.39 5.81 5.27 5.27 5.53 4.77 4.34 4.53 3.80 3.48 2.89 2.64 2.44 2.66 3.35 3.36 2.66 2.48 2.03 2.48 3.10 2.31 2.48 2.62 2.84 3.25 3.10 2.90 2.52 2.89 2.89 2.57 2.07 1.73 1.88 1.81 1.94 2.43 2.12 2.22
2.26 1.96 1.74 1.80 1.66 1.47 1.05 0.81 0.82 0.89 0.74 1.46 1.84 1.61 0.95 0.78 0.82 0.94 0.66 0.51 0.49 0.56 0.57 0.72 0.83 0.95 1.56 2.00 2.08 1.17 1.25 1.49 1.75 1.62 1.87 2.09 2.25 2.04 1.72 1.97 1.83 1.84 1.99 2.12 2.07 2.62 4.24 4.61 4.19 3.11 3.47 3.12 3.31 2.65 2.48 2.52 2.40 2.22 2.36 2.74 2.16 2.68 2.37 2.26 2.49 2.57 2.24 3.08 2.46 2.89 2.95 2.60 2.55 2.63 2.76 2.50 1.64 1.37 1.37 1.53 1.61 1.75 1.75 2.65 1.90
1.69 1.62 1.50 1.31 1.07 0.77 0.59 0.57 0.55 0.57 0.66 1.03 1.15 0.65 0.42 0.54 0.36 0.40 0.46 0.31 0.20 0.16 0.14 0.34 0.42 0.49 0.65 0.50 0.59 0.79 0.67 0.98 0.82 0.61 0.51 0.73 0.79 1.00 0.95 1.03 0.94 1.17 1.17 1.79 2.36 3.77 2.85 2.24 2.10 1.95 1.72 1.71 2.05 2.10 2.44 2.57 2.38 2.08 1.73 1.75 1.81 1.92 2.28 2.36 2.56 2.96 2.21 2.25 2.44 3.02 3.11 2.94 2.95 2.74 2.40 2.05 1.46 1.30 1.22 1.49 1.86 1.83 2.34 2.12 2.28
1.68 1.52 1.21 1.21 1.18 1.12 0.84 0.55 0.59 0.72 0.88 0.45 0.42 0.58 0.43 0.28 0.29 0.14 0.14 0.17 0.25 0.54 0.81 0.91 0.83 0.94 0.93 0.96 0.91 0.80 0.61 0.89 0.65 0.27 0.43 0.61 0.47 0.54 0.83 0.86 1.67 1.25 2.39 3.97 2.54 1.61 1.50 1.33 1.22 1.36 1.51 1.54 1.18 1.11 1.54 1.74 1.79 1.74 1.42 1.40 1.65 1.61 1.47 1.82 1.66 2.08 2.07 2.00 2.54 2.75 2.79 2.61 2.24 1.90 2.06 2.05 1.94 1.79 1.76 1.71 1.64 1.79 1.91 2.25 2.48
2.75 2.44 2.37 2.10 1.40 1.29 1.57 1.55 1.41 1.31 1.42 1.70 1.48 1.64 1.51 1.21 0.74 0.60 0.83 1.14 0.78 0.42 0.43 0.74 0.76 1.47 0.76 0.68 0.85 1.39 1.21 1.43 1.63 1.43 1.61 1.27 1.08 0.63 0.31 0.92 2.13 2.24 2.50 2.37 1.59 0.92 1.02 0.88 0.70 0.93 1.06 1.26 1.38 1.37 1.55 2.08 1.48 1.59 1.54 1.34 1.16 1.08 1.05 1.22 1.56 2.54 2.21 1.94 2.66 2.69 2.20 1.77 1.88 2.16 2.65 2.80 2.80 2.96 2.47 1.87 2.24 2.11 1.81 2.00 2.24
2.41 2.27 2.39 2.12 2.27 1.95 1.67 1.61 1.75 2.38 2.09 1.94 1.87 1.72 1.14 0.93 0.84 1.01 1.76 1.27 1.46 1.44 1.33 1.38 1.29 1.49 1.72 1.25 1.03 1.11 0.95 0.63 0.54 0.29 0.28 0.15 0.15 0.18 0.33 1.18 2.01 2.38 2.55 2.39 1.00 0.99 1.46 1.44 1.43 1.20 1.81 1.35 1.44 1.58 1.22 0.92 0.98 1.03 0.81 1.14 1.21 1.30 1.32 1.55 2.31 2.27 1.94 1.76 1.32 1.86 2.07 2.54 2.71 3.00 2.81 2.28 2.08 2.19 2.35 2.25 2.35 2.22 2.22 2.56 2.11
3.34 3.39 3.21 2.42 2.69 2.88 3.01 2.71 2.41 2.06 1.69 2.54 2.10 1.57 1.72 1.95 1.39 0.98 0.73 1.26 1.50 1.24 0.95 1.34 1.37 1.65 1.67 1.12 0.77 1.78 1.10 1.00 1.47 2.43 2.67 2.41 2.28 2.08 1.78 1.84 2.66 4.15 4.12 3.75 3.58 3.20 2.96 2.68 2.56 1.86 1.73 1.38 1.55 1.77 1.19 0.71 0.45 0.63 0.54 0.76 0.76 0.98 1.76 2.71 2.65 2.18 1.89 1.72 1.76 2.02 2.58 2.86 3.51 4.30 3.37 2.39 2.24 2.11 1.89 1.84 1.78 2.30 2.40 2.09 2.14
2.87 2.62 2.36 2.34 2.74 2.52 2.24 2.08 2.45 3.49 3.60 2.92 2.33 2.57 2.22 1.84 2.95 2.97 1.47 0.95 1.33 1.99 1.86 1.32 1.16 0.52 0.67 0.71 1.08 1.31 0.88 0.90 0.75 0.33 0.32 0.37 0.53 0.60 1.06 1.71 2.06 1.80 2.53 2.52 3.06 3.44 2.94 2.39 2.12 1.86 1.63 0.83 0.53 0.46 0.55 0.95 1.07 1.03 0.98 1.62 2.00 1.82 2.28 2.14 2.79 3.51 2.98 2.90 2.80 3.09 3.02 2.91 2.64 2.61 3.39 3.35 2.55 2.33 2.26 2.53 2.47 2.34 2.24 2.46 2.19
2.12 2.21 2.30 2.31 2.66 2.67 2.61 2.81 2.75 2.82 3.36 2.91 2.68 4.09 4.41 3.23 2.41 2.44 2.31 2.30 3.05 2.29 2.04 2.05 2.20 1.65 1.65 1.54 1.41 1.27 1.64 1.78 1.52 0.65 1.22 1.45 1.25 1.68 2.83 3.60 3.58 3.75 2.96 1.79 1.79 1.40 0.91 0.74 0.68 0.68 0.78 1.16 1.30 1.74 1.66 2.14 1.73 1.71 1.34 1.60 1.63 1.26 2.44 2.04 2.30 2.70 1.66 1.74 1.89 1.97 2.10 2.12 1.75 1.93 2.39 2.57 3.48 3.95 3.01 2.03 2.13 2.80 3.27 2.89 2.50
1.40 1.63 1.90 2.35 2.39 2.26 2.51 2.94 2.90 2.89 2.28 2.73 2.83 3.87 4.01 4.10 3.69 3.30 3.65 2.67 2.84 2.32 1.80 1.72 1.45 1.68 1.46 1.36 0.96 0.93 1.63 2.80 2.44 2.28 2.43 2.64 2.49 4.44 4.13 1.84 1.23 1.70 1.19 1.28 1.25 1.31 0.74 0.52 0.63 1.15 1.06 1.53 1.82 1.67 1.66 2.10 1.98 1.89 1.64 1.97 1.92 2.50 3.90 2.25 2.65 2.40 1.98 2.07 1.93 2.26 2.39 2.07 1.93 2.12 2.05 2.45 2.65 3.04 3.05 2.83 2.52 2.53 2.58 2.45 2.66
1.58 1.63 1.67 1.21 1.68 1.64 1.61 2.23 3.50 2.18 2.31 2.13 2.17 2.62 1.91 2.10 2.41 2.87 2.94 3.27 3.02 3.01 1.86 1.73 2.02 3.15 2.80 2.39 2.21 2.18 2.52 1.94 3.04 4.88 4.24 3.01 2.19 2.71 2.38 2.59 1.75 1.36 1.36 1.29 0.98 0.56 0.52 0.61 1.03 1.11 1.03 1.89 2.41 1.68 1.61 1.66 1.89 2.15 2.32 2.98 4.42 6.35 2.78 2.06 2.50 3.04 2.24 2.24 2.21 2.80 2.68 3.00 2.31 2.24 2.70 3.19 2.36 2.46 3.11 3.90 3.26 2.93 2.63 2.47 2.37
1.53 1.53 1.50 1.38 1.61 1.86 1.40 1.76 2.02 2.73 2.60 2.89 2.51 2.51 2.29 2.49 2.12 2.14 2.07 2.46 2.86 3.59 4.32 3.59 3.54 3.48 3.09 3.03 2.14 2.95 2.62 2.71 2.22 1.33 1.08 1.42 1.56 1.66 2.36 2.32 1.88 1.70 1.45 1.20 1.09 1.15 1.51 1.72 1.56 2.13 2.19 2.30 2.16 2.52 1.96 1.85 1.90 2.70 3.12 3.42 5.42 5.15 2.91 2.64 3.08 3.62 2.41 2.31 2.81 2.82 2.18 2.29 2.17 2.49 2.88 2.88 2.39 2.98 3.42 3.13 3.16 2.66 2.73 2.82 2.98
1.85 2.40 2.52 1.41 1.35 1.97 1.74 1.94 1.75 2.48 2.94 2.05 1.44 1.85 1.95 2.64 2.65 2.92 3.71 3.39 2.74 2.55 2.40 3.05 4.00 4.43 3.86 3.82 3.28 2.48 2.05 2.54 2.50 2.95 2.30 1.27 1.17 1.53 1.53 1.31 1.63 1.46 2.41 1.36 1.64 1.77 1.51 1.75 1.91 1.71 1.55 2.59 2.13 2.00 2.26 2.28 1.90 2.02 2.85 3.56 6.43 4.45 3.17 3.22 3.03 3.40 3.40 2.42 2.11 1.82 1.63 1.45 1.97 3.22 3.69 3.55 3.39 2.64 2.31 2.64 2.97 2.96 2.93 2.74 3.28
2.28 2.29 1.85 1.31 1.13 1.53 1.64 1.98 1.51 1.06 1.26 1.27 1.34 1.28 1.57 1.39 1.28 1.48 2.28 2.69 2.77 2.93 2.84 3.33 2.81 3.35 2.87 2.50 2.29 2.69 3.77 3.49 2.88 2.09 2.42 3.24 2.39 1.88 1.69 1.67 1.35 3.01 1.80 1.45 1.56 1.94 1.71 1.48 1.42 1.62 1.51 2.58 3.45 3.20 2.42 2.03 2.07 2.09 3.90 4.83 5.84 3.75 2.89 2.92 2.59 2.12 2.12 2.06 2.57 2.36 2.24 2.32 2.91 3.32 2.75 2.95 3.74 3.63 3.38 3.03 2.67 2.94 3.96 4.82 4.92
3.36 2.57 2.65 2.09 1.87 1.80 2.02 1.58 1.14 1.29 1.14 1.73 1.99 1.59 1.39 1.77 2.06 1.62 1.51 1.36 1.70 1.33 1.73 1.57 2.47 2.48 2.55 2.31 1.91 1.96 4.34 2.77 3.07 2.92 2.42 3.07 3.31 3.11 2.76 1.72 1.37 1.46 2.01 2.43 2.18 1.98 1.66 1.87 1.95 1.59 1.74 2.77 3.47 3.34 2.44 1.52 1.86 2.74 2.99 4.03 5.21 3.98 3.46 2.97 2.61 3.22 3.13 2.47 2.08 2.56 2.90 3.10 2.88 4.04 5.12 3.66 3.31 3.38 3.53 3.91 4.25 4.51 4.34 4.39 4.18
2.51 2.94 3.52 3.48 3.65 3.46 2.43 2.44 2.19 3.04 1.79 1.81 2.03 1.14 1.40 2.62 2.89 3.07 2.89 2.58 2.20 1.69 1.17 1.84 2.03 2.25 2.34 1.94 1.91 1.52 1.47 1.61 2.17 2.41 2.54 2.47 2.83 3.24 3.40 2.73 2.02 2.10 2.03 1.86 1.66 2.07 1.68 1.65 1.85 2.05 2.44 2.18 2.51 4.60 4.87 3.96 2.99 2.80 3.42 5.72 4.79 3.06 3.06 2.88 2.82 2.33 2.91 3.33 3.64 3.53 3.45 3.23 3.23 3.94 3.95 4.96 4.25 3.21 3.60 4.24 3.78 3.51 4.41 4.31 4.39
1.60 2.59 3.43 2.78 2.56 3.06 3.56 3.73 3.65 3.80 2.17 2.03 1.91 2.41 3.09 2.73 1.96 1.99 2.90 2.64 2.64 2.34 2.23 2.48 2.81 1.94 2.14 2.13 1.66 1.33 1.23 1.80 1.91 2.33 2.65 2.33 2.43 2.15 2.54 3.33 3.17 3.18 3.31 3.31 3.02 3.10 3.20 2.93 2.26 2.83 3.04 2.72 3.06 4.47 4.60 4.59 5.99 5.82 4.34 3.83 3.79 3.35 2.85 2.93 3.52 3.39 3.52 3.48 2.93 3.50 4.02 4.56 4.32 3.67 3.27 3.16 3.43 4.38 3.44 3.03 2.88 3.01 2.58 2.87 3.44
1.84 1.99 2.71 2.71 2.39 2.10 2.47 2.47 1.63 2.04 2.09 1.75 1.63 1.71 2.64 3.06 2.57 1.76 1.48 1.72 1.39 1.11 1.17 1.56 2.00 2.04 1.87 1.71 1.39 1.52 1.92 2.55 3.25 3.46 3.12 2.35 2.46 2.12 2.42 2.88 2.79 2.17 2.43 2.72 2.22 1.97 2.00 2.63 2.92 2.64 2.62 2.76 3.42 3.86 5.42 4.53 4.55 4.91 5.25 4.60 4.30 4.64 5.16 4.32 3.66 3.03 3.55 4.50 4.41 4.16 3.76 4.29 3.31 2.64 2.13 1.81 2.08 2.50 2.59 2.24 2.70 2.35 2.38 2.59 2.51
1.37 1.56 2.17 2.49 2.35 2.03 2.33 2.90 3.11 2.99 2.76 2.92 3.18 2.96 3.26 3.05 3.00 3.21 2.92 3.30 2.19 1.41 1.21 1.05 1.71 1.70 1.54 1.42 1.70 1.43 2.39 3.25 3.07 1.94 2.34 2.80 2.10 2.71 3.03 4.03 3.18 3.02 3.19 3.20 2.30 1.60 2.02 2.43 2.38 1.86 1.60 2.19 2.39 3.31 4.07 4.94 3.67 4.33 4.12 4.25 4.30 4.36 3.66 3.17 3.37 4.05 4.35 4.27 5.01 3.99 2.58 1.53 1.48 1.69 1.69 1.68 1.67 1.80 2.04 2.06 2.23 2.55 2.92 3.45 3.40
1.81 1.71 1.64 1.74 1.76 1.39 1.43 2.03 2.59 1.93 2.35 3.13 2.57 1.73 1.35 2.00 1.47 1.97 2.77 3.25 2.37 1.69 1.62 2.03 1.82 2.26 2.46 2.07 2.52 2.24 3.10 3.74 3.38 2.42 1.92 2.87 3.37 2.97 3.02 2.52 2.72 3.15 2.93 2.84 2.01 2.38 2.35 2.60 2.34 2.73 1.89 2.30 2.71 2.71 3.39 3.99 5.01 3.65 3.30 2.93 2.61 2.40 2.18 2.12 1.83 2.00 2.46 2.42 2.95 3.37 2.78 2.03 1.90 1.73 1.74 1.85 1.96 1.90 1.91 2.39 2.08 2.37 2.87 3.52 3.18
1.74 1.55 1.69 1.68 1.42 1.59 1.85 1.66 1.90 1.83 1.85 2.08 2.78 3.44 3.58 2.73 3.05 2.94 2.83 2.71 2.71 2.98 2.93 3.17 3.58 3.85 4.01 4.15 3.43 3.79 4.51 3.79 3.39 3.68 2.94 3.02 3.24 2.97 3.06 2.82 2.46 2.51 2.22 2.16 2.31 1.82 1.57 1.75 2.82 2.91 2.04 1.75 2.11 2.28 2.67 2.26 3.34 3.89 3.27 2.44 3.17 2.15 2.20 2.57 2.61 2.88 2.63 2.17 1.53 1.67 1.63 1.82 1.71 1.61 1.65 1.98 2.08 1.67 1.97 2.20 2.56 2.64 3.21 2.93 2.22
1.26 1.29 1.11 1.10 1.39 1.79 2.21 1.85 2.50 2.45 2.63 2.54 2.56 2.27 2.09 1.84 1.51 1.50 1.75 2.33 2.56 2.74 2.38 3.08 4.19 4.11 5.00 4.68 4.40 4.56 4.00 3.14 3.30 3.80 4.15 3.65 3.62 3.19 3.12 2.62 1.85 1.90 2.43 2.68 2.69 2.67 3.34 3.85 4.61 2.37 1.48 2.76 4.02 3.40 3.81 2.57 2.45 3.06 3.91 2.92 1.77 1.13 1.14 0.99 0.94 1.07 1.10 1.27 1.31 1.14 1.10 1.26 1.30 1.88 1.67 1.77 1.87 1.69 2.00 1.74 1.88 1.92 1.46 2.14 2.61
1.19 1.59 1.39 1.84 2.16 1.87 1.76 1.53 1.64 2.01 2.64 2.84 2.82 2.75 2.93 2.72 3.00 2.78 2.36 2.20 2.28 3.52 3.47 3.75 3.50 3.34 3.34 3.31 3.51 3.88 4.14 3.59 3.86 4.19 5.23 4.95 4.16 3.28 2.65 2.48 2.13 2.43 3.07 3.95 3.75 3.33 2.68 1.90 2.10 2.49 2.68 2.95 2.70 3.11 2.74 2.82 2.38 2.06 1.56 1.28 1.47 1.42 1.35 1.11 0.87 1.06 1.33 0.92 0.97 1.03 0.90 1.07 1.00 1.12 1.28 1.31 0.98 1.01 1.24 1.16 1.09 1.53 1.83 2.17 1.87
0.77 0.79 0.86 1.01 1.17 1.64 1.49 1.34 1.49 1.71 1.80 1.97 1.98 2.17 2.24 1.95 3.12 4.63 3.35 2.96 2.31 2.33 2.60 2.64 2.77 2.61 3.07 3.52 3.69 4.26 3.70 3.61 3.99 3.07 3.96 4.93 4.74 4.24 3.38 2.94 3.19 3.17 3.21 3.30 3.26 3.02 3.12 2.70 2.38 2.69 2.74 2.87 2.73 1.94 1.37 1.57 1.67 1.70 1.12 1.03 0.97 0.82 0.81 1.08 0.82 0.65 0.90 0.97 0.98 1.05 0.99 0.88 1.00 1.07 1.09 0.98 0.89 0.85 0.83 0.86 1.15 1.37 1.58 1.48 1.54